| time (UTC) | temp F | wind direction | speed MPH | gust MPH | rain 1hr in | rain 24hr in | rain mn in | humidity % | barometer mb |
| 20260510065740 | 66 | 246 | 2.0 | 2.0 | 0.00 | 0.00 | 0.00 | 97 | 1016.8 |
| 20260510065237 | 66 | 226 | 2.0 | 2.0 | 0.00 | 0.00 | 0.00 | 97 | 1016.9 |
| 20260510064734 | 66 | 224 | 1.0 | 2.0 | 0.00 | 0.00 | 0.00 | 97 | 1017.0 |
| 20260510064232 | 66 | 256 | 0.0 | 1.0 | 0.00 | 0.00 | 0.00 | 97 | 1016.8 |
| 20260510063728 | 66 | 253 | 0.0 | 1.0 | 0.00 | 0.00 | 0.00 | 97 | 1016.8 |
| 20260510063224 | 66 | 259 | 1.0 | 1.0 | 0.00 | 0.00 | 0.00 | 97 | 1017.0 |
| 20260510062721 | 66 | 248 | 0.0 | 2.0 | 0.00 | 0.00 | 0.00 | 97 | 1017.1 |
| 20260510062217 | 66 | 304 | 1.0 | 2.0 | 0.00 | 0.00 | 0.00 | 97 | 1016.9 |
| 20260510061712 | 66 | 282 | 0.0 | 2.0 | 0.00 | 0.00 | 0.00 | 97 | 1017.0 |
| 20260510061210 | 66 | 291 | 0.0 | 0.0 | 0.00 | 0.00 | 0.00 | 97 | 1016.7 |
| 20260510060706 | 66 | 265 | 0.0 | 1.0 | 0.00 | 0.00 | 0.00 | 97 | 1017.0 |
| 20260510060203 | 66 | 246 | 0.0 | 2.0 | 0.00 | 0.00 | 0.00 | 97 | 1016.9 |
| 20260510055659 | 66 | 248 | 1.0 | 1.0 | 0.00 | 0.00 | 0.00 | 97 | 1017.1 |
| 20260510055157 | 66 | 306 | 0.0 | 2.0 | 0.00 | 0.00 | 0.00 | 97 | 1016.9 |
| 20260510054652 | 66 | 267 | 1.0 | 3.0 | 0.00 | 0.00 | 0.00 | 97 | 1017.1 |
| 20260510054148 | 67 | 249 | 1.0 | 1.0 | 0.00 | 0.00 | 0.00 | 97 | 1017.2 |
| 20260510053647 | 67 | 194 | 2.0 | 3.0 | 0.00 | 0.00 | 0.00 | 97 | 1017.2 |
| 20260510053144 | 67 | 220 | 0.0 | 4.0 | 0.00 | 0.00 | 0.00 | 97 | 1017.1 |
| 20260510052640 | 67 | 187 | 0.0 | 2.0 | 0.00 | 0.00 | 0.00 | 97 | 1017.0 |
| 20260510052136 | 67 | 196 | 0.0 | 0.0 | 0.00 | 0.00 | 0.00 | 97 | 1017.1 |
| 20260510051632 | 67 | 183 | 2.0 | 6.0 | 0.00 | 0.00 | 0.00 | 97 | 1017.3 |
| 20260510051129 | 67 | 234 | 0.0 | 4.0 | 0.00 | 0.00 | 0.00 | 97 | 1017.0 |
| 20260510050627 | 67 | 285 | 1.0 | 1.0 | 0.00 | 0.00 | 0.00 | 97 | 1017.2 |
| 20260510050123 | 67 | 217 | 2.0 | 2.0 | 0.00 | 0.00 | 0.00 | 97 | 1016.9 |
| 20260510045620 | 67 | 312 | 0.0 | 2.0 | 0.00 | 1.15 | 1.15 | 97 | 1017.0 |
| 20260510045117 | 67 | 290 | 3.0 | 3.0 | 0.00 | 1.15 | 1.15 | 97 | 1016.9 |
| 20260510044613 | 67 | 228 | 5.0 | 6.0 | 0.00 | 1.15 | 1.15 | 97 | 1017.0 |
| 20260510044110 | 67 | 226 | 0.0 | 3.0 | 0.00 | 1.15 | 1.15 | 97 | 1017.2 |
| 20260510043606 | 67 | 207 | 3.0 | 3.0 | 0.00 | 1.15 | 1.15 | 97 | 1017.4 |
| 20260510043102 | 67 | 203 | 1.0 | 3.0 | 0.00 | 1.15 | 1.15 | 97 | 1017.2 |
| 20260510042601 | 67 | 275 | 0.0 | 2.0 | 0.00 | 1.15 | 1.15 | 97 | 1017.1 |
| 20260510042056 | 67 | 303 | 2.0 | 2.0 | 0.00 | 1.15 | 1.15 | 97 | 1017.2 |
| 20260510041554 | 67 | 229 | 2.0 | 3.0 | 0.00 | 1.15 | 1.15 | 97 | 1017.2 |
| 20260510041051 | 67 | 239 | 0.0 | 3.0 | 0.00 | 1.15 | 1.15 | 97 | 1017.2 |
| 20260510040548 | 67 | 233 | 0.0 | 3.0 | 0.00 | 1.15 | 1.15 | 97 | 1017.1 |
| 20260510040043 | 67 | 294 | 3.0 | 3.0 | 0.00 | 1.15 | 1.15 | 97 | 1017.3 |
| 20260510035540 | 67 | 232 | 0.0 | 2.0 | 0.00 | 1.15 | 1.15 | 97 | 1017.4 |
| 20260510035039 | 67 | 335 | 0.0 | 4.0 | 0.00 | 1.15 | 1.15 | 97 | 1017.2 |
| 20260510034538 | 67 | 226 | 0.0 | 3.0 | 0.00 | 1.15 | 1.15 | 97 | 1017.5 |
| 20260510034035 | 67 | 180 | 1.0 | 2.0 | 0.00 | 1.15 | 1.15 | 97 | 1017.4 |
| 20260510033530 | 67 | 248 | 3.0 | 4.0 | 0.00 | 1.15 | 1.15 | 97 | 1017.3 |
| 20260510033029 | 67 | 184 | 1.0 | 2.0 | 0.00 | 1.15 | 1.15 | 97 | 1017.5 |
| 20260510032525 | 67 | 214 | 3.0 | 4.0 | 0.00 | 1.15 | 1.15 | 97 | 1017.2 |
| 20260510032020 | 67 | 212 | 1.0 | 2.0 | 0.00 | 1.15 | 1.15 | 98 | 1017.1 |
| 20260510031516 | 67 | 255 | 3.0 | 4.0 | 0.00 | 1.15 | 1.15 | 98 | 1016.9 |
| 20260510031012 | 67 | 262 | 0.0 | 3.0 | 0.00 | 1.15 | 1.15 | 98 | 1016.9 |
| 20260510030508 | 67 | 290 | 2.0 | 3.0 | 0.00 | 1.15 | 1.15 | 98 | 1017.1 |
| 20260510030005 | 67 | 277 | 2.0 | 4.0 | 0.00 | 1.15 | 1.15 | 98 | 1017.0 |
| 20260510025502 | 67 | 310 | 2.0 | 2.0 | 0.00 | 1.15 | 1.15 | 98 | 1016.6 |
| 20260510025000 | 67 | 216 | 0.0 | 1.0 | 0.00 | 1.15 | 1.15 | 98 | 1016.8 |
| 20260510024456 | 67 | 311 | 0.0 | 1.0 | 0.00 | 1.15 | 1.15 | 98 | 1017.0 |
| 20260510023952 | 67 | 269 | 0.0 | 2.0 | 0.00 | 1.15 | 1.15 | 98 | 1016.8 |
| 20260510023448 | 67 | 283 | 0.0 | 0.0 | 0.00 | 1.15 | 1.15 | 98 | 1017.0 |
| 20260510022945 | 67 | 283 | 0.0 | 1.0 | 0.00 | 1.15 | 1.15 | 98 | 1016.9 |
| 20260510022444 | 67 | 312 | 2.0 | 2.0 | 0.00 | 1.15 | 1.15 | 98 | 1016.9 |
| 20260510021943 | 67 | 250 | 2.0 | 2.0 | 0.00 | 1.15 | 1.15 | 98 | 1016.9 |
| 20260510021442 | 67 | 250 | 0.0 | 1.0 | 0.00 | 1.15 | 1.15 | 98 | 1016.8 |
| 20260510020939 | 67 | 307 | 1.0 | 2.0 | 0.00 | 1.15 | 1.15 | 98 | 1016.8 |
| 20260510020438 | 67 | 273 | 1.0 | 2.0 | 0.00 | 1.15 | 1.15 | 98 | 1017.0 |
| 20260510015934 | 67 | 307 | 2.0 | 2.0 | 0.00 | 1.15 | 1.15 | 98 | 1016.6 |
| 20260510015431 | 67 | 272 | 1.0 | 2.0 | 0.00 | 1.15 | 1.15 | 98 | 1016.4 |
| 20260510014925 | 67 | 302 | 2.0 | 2.0 | 0.00 | 1.15 | 1.15 | 98 | 1016.4 |
| 20260510014423 | 67 | 308 | 2.0 | 2.0 | 0.00 | 1.15 | 1.15 | 97 | 1016.3 |
| 20260510013919 | 67 | 299 | 1.0 | 2.0 | 0.00 | 1.15 | 1.15 | 97 | 1016.1 |
| 20260510013414 | 67 | 299 | 2.0 | 2.0 | 0.00 | 1.15 | 1.15 | 97 | 1016.0 |
| 20260510012910 | 68 | 299 | 2.0 | 2.0 | 0.00 | 1.15 | 1.15 | 97 | 1016.1 |
| 20260510012406 | 68 | 295 | 1.0 | 2.0 | 0.00 | 1.15 | 1.15 | 97 | 1015.8 |
| 20260510011900 | 68 | 302 | 2.0 | 2.0 | 0.00 | 1.15 | 1.15 | 97 | 1015.9 |
| 20260510011355 | 68 | 244 | 1.0 | 2.0 | 0.00 | 1.15 | 1.15 | 97 | 1015.9 |
| 20260510010852 | 68 | 243 | 1.0 | 1.0 | 0.00 | 1.15 | 1.15 | 96 | 1015.6 |
| 20260510010349 | 68 | 234 | 2.0 | 2.0 | 0.00 | 1.15 | 1.15 | 96 | 1015.7 |
| 20260510005846 | 68 | 305 | 2.0 | 2.0 | 0.00 | 1.15 | 1.15 | 96 | 1015.3 |
| 20260510005342 | 68 | 287 | 1.0 | 3.0 | 0.00 | 1.15 | 1.15 | 96 | 1015.6 |
| 20260510004840 | 68 | 305 | 2.0 | 2.0 | 0.00 | 1.15 | 1.15 | 95 | 1015.5 |
| 20260510004337 | 69 | 317 | 2.0 | 2.0 | 0.00 | 1.15 | 1.15 | 95 | 1015.4 |
| 20260510003835 | 69 | 326 | 2.0 | 2.0 | 0.00 | 1.15 | 1.15 | 94 | 1015.6 |
| 20260510003332 | 69 | 225 | 2.0 | 2.0 | 0.00 | 1.15 | 1.15 | 94 | 1015.6 |
| 20260510002830 | 69 | 256 | 1.0 | 1.0 | 0.00 | 1.15 | 1.15 | 93 | 1015.4 |
| 20260510002328 | 69 | 286 | 1.0 | 2.0 | 0.00 | 1.15 | 1.15 | 93 | 1015.6 |
| 20260510001824 | 69 | 234 | 0.0 | 2.0 | 0.00 | 1.15 | 1.15 | 93 | 1015.5 |
| 20260510001323 | 69 | 282 | 0.0 | 0.0 | 0.00 | 1.15 | 1.15 | 93 | 1015.6 |
| 20260510000818 | 69 | 300 | 1.0 | 2.0 | 0.00 | 1.15 | 1.15 | 92 | 1015.5 |
| 20260510000318 | 70 | 8 | 1.0 | 1.0 | 0.00 | 1.15 | 1.15 | 92 | 1015.5 |
| 20260509235813 | 70 | 243 | 2.0 | 2.0 | 0.00 | 1.15 | 1.15 | 92 | 1015.5 |
| 20260509235309 | 70 | 210 | 1.0 | 2.0 | 0.00 | 1.15 | 1.15 | 91 | 1015.4 |
| 20260509234805 | 70 | 197 | 1.0 | 1.0 | 0.00 | 1.15 | 1.15 | 91 | 1015.4 |
| 20260509234302 | 70 | 332 | 0.0 | 1.0 | 0.00 | 1.15 | 1.15 | 91 | 1015.4 |
| 20260509233800 | 70 | 139 | 0.0 | 4.0 | 0.00 | 1.15 | 1.15 | 90 | 1015.3 |
| 20260509233257 | 70 | 227 | 0.0 | 1.0 | 0.00 | 1.15 | 1.15 | 91 | 1015.5 |
| 20260509232753 | 70 | 232 | 2.0 | 2.0 | 0.00 | 1.15 | 1.15 | 90 | 1015.5 |
| 20260509232251 | 70 | 193 | 2.0 | 2.0 | 0.00 | 1.15 | 1.15 | 90 | 1015.4 |
| 20260509231747 | 70 | 216 | 4.0 | 5.0 | 0.00 | 1.15 | 1.15 | 90 | 1015.4 |
| 20260509231244 | 70 | 172 | 1.0 | 5.0 | 0.00 | 1.15 | 1.15 | 90 | 1015.5 |
| 20260509230741 | 70 | 163 | 1.0 | 2.0 | 0.00 | 1.15 | 1.15 | 91 | 1015.4 |
| 20260509230238 | 70 | 229 | 2.0 | 3.0 | 0.00 | 1.15 | 1.15 | 91 | 1015.0 |
| 20260509225733 | 70 | 190 | 1.0 | 2.0 | 0.00 | 1.15 | 1.15 | 91 | 1015.2 |
| 20260509225230 | 70 | 201 | 0.0 | 3.0 | 0.00 | 1.15 | 1.15 | 91 | 1015.4 |
| 20260509224725 | 70 | 180 | 1.0 | 6.0 | 0.00 | 1.15 | 1.15 | 91 | 1015.3 |
| 20260509224223 | 70 | 182 | 4.0 | 11.0 | 0.00 | 1.15 | 1.15 | 90 | 1015.5 |
| 20260509223720 | 70 | 187 | 3.0 | 5.0 | 0.00 | 1.15 | 1.15 | 90 | 1015.2 |
| 20260509223217 | 70 | 201 | 0.0 | 6.0 | 0.00 | 1.15 | 1.15 | 90 | 1015.1 |
| 20260509222713 | 71 | 178 | 3.0 | 8.0 | 0.00 | 1.15 | 1.15 | 89 | 1015.2 |
| 20260509222209 | 70 | 211 | 5.0 | 9.0 | 0.00 | 1.15 | 1.15 | 90 | 1015.0 |
| 20260509221705 | 71 | 211 | 5.0 | 6.0 | 0.00 | 1.15 | 1.15 | 90 | 1014.8 |
| 20260509221201 | 70 | 303 | 2.0 | 3.0 | 0.00 | 1.15 | 1.15 | 91 | 1014.7 |
| 20260509220657 | 70 | 221 | 8.0 | 8.0 | 0.00 | 1.15 | 1.15 | 92 | 1014.9 |
| 20260509220154 | 70 | 169 | 3.0 | 7.0 | 0.00 | 1.15 | 1.15 | 91 | 1015.3 |
| 20260509215649 | 70 | 183 | 3.0 | 6.0 | 0.00 | 1.15 | 1.15 | 93 | 1014.9 |
| 20260509215147 | 69 | 221 | 5.0 | 5.0 | 0.00 | 1.15 | 1.15 | 93 | 1014.9 |
| 20260509214643 | 69 | 173 | 2.0 | 6.0 | 0.00 | 1.15 | 1.15 | 93 | 1015.0 |
| 20260509214140 | 70 | 185 | 3.0 | 8.0 | 0.00 | 1.15 | 1.15 | 92 | 1014.8 |
| 20260509213637 | 70 | 176 | 1.0 | 5.0 | 0.00 | 1.15 | 1.15 | 93 | 1015.0 |
| 20260509213133 | 70 | 208 | 3.0 | 4.0 | 0.02 | 1.15 | 1.15 | 92 | 1015.0 |
| 20260509212631 | 70 | 240 | 3.0 | 5.0 | 0.02 | 1.15 | 1.15 | 91 | 1015.3 |
| 20260509212127 | 70 | 330 | 3.0 | 4.0 | 0.00 | 1.14 | 1.14 | 92 | 1015.2 |
| 20260509211623 | 70 | 230 | 2.0 | 3.0 | 0.00 | 1.14 | 1.14 | 91 | 1015.2 |
| 20260509211120 | 71 | 219 | 4.0 | 9.0 | 0.00 | 1.14 | 1.14 | 90 | 1015.5 |
| 20260509210617 | 71 | 180 | 3.0 | 5.0 | 0.00 | 1.14 | 1.14 | 90 | 1015.0 |
| 20260509210114 | 71 | 180 | 5.0 | 5.0 | 0.00 | 1.14 | 1.14 | 90 | 1015.2 |
| 20260509205608 | 71 | 197 | 2.0 | 5.0 | 0.00 | 1.14 | 1.14 | 90 | 1015.1 |
| 20260509205103 | 72 | 231 | 4.0 | 5.0 | 0.00 | 1.14 | 1.14 | 90 | 1015.1 |
| 20260509204559 | 72 | 296 | 2.0 | 4.0 | 0.00 | 1.14 | 1.14 | 91 | 1015.0 |
| 20260509204056 | 73 | 188 | 2.0 | 5.0 | 0.00 | 1.14 | 1.14 | 90 | 1014.9 |
| 20260509203552 | 73 | 196 | 2.0 | 6.0 | 0.00 | 1.14 | 1.14 | 90 | 1014.8 |
| 20260509203051 | 73 | 219 | 2.0 | 3.0 | 0.00 | 1.14 | 1.14 | 89 | 1014.7 |
| 20260509202550 | 73 | 192 | 2.0 | 5.0 | 0.00 | 1.14 | 1.14 | 88 | 1014.8 |
| 20260509202046 | 73 | 223 | 3.0 | 3.0 | 0.00 | 1.14 | 1.14 | 89 | 1015.1 |
| 20260509201541 | 74 | 226 | 2.0 | 4.0 | 0.00 | 1.14 | 1.14 | 88 | 1015.1 |
| 20260509201040 | 74 | 180 | 3.0 | 3.0 | 0.00 | 1.14 | 1.14 | 87 | 1015.1 |
| 20260509200539 | 75 | 288 | 1.0 | 3.0 | 0.00 | 1.14 | 1.14 | 86 | 1015.2 |
| 20260509200036 | 75 | 178 | 0.0 | 2.0 | 0.00 | 1.14 | 1.14 | 87 | 1015.0 |
| 20260509195531 | 76 | 294 | 2.0 | 2.0 | 0.00 | 1.14 | 1.14 | 87 | 1015.2 |
| 20260509195032 | 76 | 200 | 2.0 | 3.0 | 0.00 | 1.14 | 1.14 | 84 | 1015.1 |
| 20260509194526 | 76 | 203 | 2.0 | 4.0 | 0.00 | 1.14 | 1.14 | 85 | 1015.2 |
| 20260509194024 | 76 | 281 | 2.0 | 2.0 | 0.00 | 1.14 | 1.14 | 83 | 1015.2 |
| 20260509193524 | 76 | 152 | 0.0 | 3.0 | 0.00 | 1.14 | 1.14 | 88 | 1015.1 |
| 20260509193022 | 76 | 143 | 0.0 | 5.0 | 0.00 | 1.14 | 1.14 | 85 | 1015.1 |
| 20260509192518 | 76 | 216 | 6.0 | 8.0 | 0.00 | 1.14 | 1.14 | 84 | 1015.1 |
| 20260509192013 | 76 | 193 | 0.0 | 3.0 | 0.00 | 1.14 | 1.14 | 87 | 1015.2 |
| 20260509191508 | 75 | 268 | 3.0 | 3.0 | 0.00 | 1.14 | 1.14 | 85 | 1015.1 |
| 20260509191004 | 75 | 210 | 0.0 | 4.0 | 0.00 | 1.14 | 1.14 | 88 | 1015.2 |
| 20260509190501 | 75 | 288 | 0.0 | 1.0 | 0.00 | 1.14 | 1.14 | 89 | 1015.2 |
| 20260509185959 | 74 | 189 | 0.0 | 1.0 | 0.00 | 1.14 | 1.14 | 88 | 1015.3 |
| 20260509185455 | 74 | 201 | 4.0 | 6.0 | 0.00 | 1.14 | 1.14 | 86 | 1015.5 |
| 20260509184952 | 75 | 192 | 3.0 | 6.0 | 0.00 | 1.14 | 1.14 | 85 | 1015.5 |
| 20260509184450 | 75 | 218 | 2.0 | 4.0 | 0.00 | 1.14 | 1.14 | 86 | 1015.3 |
| 20260509183946 | 74 | 221 | 0.0 | 2.0 | 0.00 | 1.14 | 1.14 | 88 | 1015.6 |
| 20260509183441 | 74 | 265 | 3.0 | 4.0 | 0.00 | 1.14 | 1.14 | 87 | 1015.7 |
| 20260509182937 | 74 | 227 | 4.0 | 6.0 | 0.00 | 1.14 | 1.14 | 86 | 1015.5 |
| 20260509182434 | 75 | 210 | 4.0 | 4.0 | 0.00 | 1.14 | 1.14 | 87 | 1015.4 |
| 20260509181931 | 75 | 245 | 2.0 | 6.0 | 0.00 | 1.14 | 1.14 | 86 | 1015.3 |
| 20260509181429 | 74 | 211 | 5.0 | 5.0 | 0.00 | 1.14 | 1.14 | 88 | 1015.2 |
| 20260509180926 | 74 | 213 | 3.0 | 4.0 | 0.00 | 1.14 | 1.14 | 87 | 1015.4 |
| 20260509180421 | 74 | 194 | 2.0 | 3.0 | 0.00 | 1.14 | 1.14 | 88 | 1015.5 |
| 20260509175919 | 73 | 230 | 1.0 | 2.0 | 0.00 | 1.14 | 1.14 | 91 | 1015.5 |
| 20260509175415 | 73 | 216 | 2.0 | 2.0 | 0.00 | 1.14 | 1.14 | 90 | 1015.8 |
| 20260509174912 | 73 | 228 | 5.0 | 6.0 | 0.00 | 1.14 | 1.14 | 90 | 1015.9 |
| 20260509174408 | 73 | 210 | 6.0 | 7.0 | 0.00 | 1.14 | 1.14 | 89 | 1015.7 |
| 20260509173904 | 72 | 208 | 4.0 | 4.0 | 0.00 | 1.14 | 1.14 | 90 | 1015.9 |
| 20260509173403 | 73 | 205 | 4.0 | 4.0 | 0.00 | 1.14 | 1.14 | 90 | 1015.9 |
| 20260509172900 | 72 | 198 | 2.0 | 3.0 | 0.00 | 1.14 | 1.14 | 89 | 1016.0 |
| 20260509172357 | 72 | 333 | 1.0 | 1.0 | 0.00 | 1.14 | 1.14 | 91 | 1016.1 |
| 20260509171853 | 72 | 322 | 1.0 | 2.0 | 0.00 | 1.14 | 1.14 | 90 | 1016.4 |
| 20260509171349 | 72 | 247 | 1.0 | 3.0 | 0.00 | 1.14 | 1.14 | 90 | 1016.2 |
| 20260509170846 | 72 | 301 | 0.0 | 2.0 | 0.00 | 1.14 | 1.14 | 90 | 1016.2 |
| 20260509170342 | 72 | 306 | 1.0 | 2.0 | 0.00 | 1.14 | 1.14 | 92 | 1016.3 |
| 20260509165842 | 71 | 330 | 0.0 | 3.0 | 0.00 | 1.14 | 1.14 | 92 | 1016.1 |
| 20260509165336 | 71 | 264 | 0.0 | 2.0 | 0.00 | 1.14 | 1.14 | 93 | 1016.2 |
| 20260509164833 | 71 | 258 | 2.0 | 3.0 | 0.00 | 1.14 | 1.14 | 93 | 1016.2 |
| 20260509164329 | 71 | 223 | 3.0 | 4.0 | 0.00 | 1.14 | 1.14 | 92 | 1016.1 |
| 20260509163825 | 71 | 221 | 3.0 | 4.0 | 0.00 | 1.14 | 1.14 | 94 | 1016.4 |
| 20260509163323 | 71 | 274 | 2.0 | 4.0 | 0.00 | 1.14 | 1.14 | 95 | 1016.1 |
| 20260509162822 | 70 | 228 | 2.0 | 3.0 | 0.00 | 1.14 | 1.14 | 96 | 1016.2 |
| 20260509162320 | 69 | 265 | 2.0 | 3.0 | 0.00 | 1.14 | 1.14 | 97 | 1016.2 |
| 20260509161817 | 69 | 285 | 2.0 | 2.0 | 0.00 | 1.14 | 1.14 | 97 | 1016.1 |
| 20260509161313 | 69 | 297 | 1.0 | 6.0 | 0.00 | 1.14 | 1.14 | 97 | 1016.2 |
| 20260509160809 | 68 | 291 | 2.0 | 2.0 | 0.00 | 1.14 | 1.14 | 98 | 1016.5 |
| 20260509160305 | 68 | 252 | 3.0 | 4.0 | 0.00 | 1.14 | 1.14 | 98 | 1016.3 |
| 20260509155800 | 68 | 332 | 2.0 | 3.0 | 0.00 | 1.14 | 1.14 | 98 | 1016.5 |
| 20260509155257 | 68 | 322 | 2.0 | 3.0 | 0.00 | 1.14 | 1.14 | 98 | 1016.6 |
| 20260509154753 | 68 | 267 | 1.0 | 3.0 | 0.00 | 1.14 | 1.14 | 98 | 1016.6 |
| 20260509154250 | 68 | 263 | 2.0 | 3.0 | 0.00 | 1.14 | 1.14 | 98 | 1016.5 |
| 20260509153747 | 68 | 300 | 2.0 | 2.0 | 0.02 | 1.14 | 1.14 | 98 | 1016.3 |
| 20260509153243 | 67 | 315 | 3.0 | 4.0 | 0.02 | 1.14 | 1.14 | 98 | 1016.4 |
| 20260509152740 | 67 | 307 | 3.0 | 3.0 | 0.00 | 1.14 | 1.14 | 98 | 1016.4 |
| 20260509152236 | 67 | 336 | 1.0 | 2.0 | 0.00 | 1.14 | 1.14 | 98 | 1016.3 |
| 20260509151733 | 67 | 282 | 2.0 | 3.0 | 0.00 | 1.14 | 1.14 | 98 | 1016.3 |
| 20260509151230 | 67 | 288 | 1.0 | 4.0 | 0.00 | 1.14 | 1.14 | 97 | 1016.2 |
| 20260509150728 | 67 | 331 | 4.0 | 6.0 | 0.00 | 1.14 | 1.14 | 97 | 1016.1 |
| 20260509150226 | 67 | 267 | 2.0 | 4.0 | 0.00 | 1.14 | 1.14 | 97 | 1016.1 |
| 20260509145723 | 67 | 303 | 2.0 | 6.0 | 0.00 | 1.14 | 1.14 | 97 | 1016.1 |
| 20260509145223 | 67 | 303 | 3.0 | 4.0 | 0.00 | 1.14 | 1.14 | 98 | 1016.2 |
| 20260509144719 | 67 | 295 | 2.0 | 3.0 | 0.00 | 1.14 | 1.14 | 98 | 1016.3 |
| 20260509144217 | 67 | 310 | 3.0 | 7.0 | 0.00 | 1.14 | 1.14 | 98 | 1016.3 |
| 20260509143714 | 67 | 327 | 2.0 | 4.0 | 0.00 | 1.14 | 1.14 | 98 | 1016.3 |
| 20260509143211 | 67 | 305 | 2.0 | 2.0 | 0.00 | 1.14 | 1.14 | 98 | 1016.6 |
| 20260509142706 | 67 | 346 | 1.0 | 3.0 | 0.00 | 1.14 | 1.14 | 99 | 1016.6 |
| 20260509142203 | 67 | 281 | 2.0 | 4.0 | 0.00 | 1.14 | 1.14 | 99 | 1016.4 |
| 20260509141659 | 67 | 334 | 2.0 | 3.0 | 0.00 | 1.14 | 1.14 | 99 | 1016.3 |
| 20260509141156 | 66 | 318 | 2.0 | 4.0 | 0.00 | 1.14 | 1.14 | 99 | 1016.2 |
| 20260509140652 | 66 | 334 | 2.0 | 3.0 | 0.00 | 1.14 | 1.14 | 99 | 1016.1 |
| 20260509140150 | 66 | 298 | 3.0 | 4.0 | 0.00 | 1.14 | 1.14 | 99 | 1016.1 |
| 20260509135647 | 66 | 292 | 2.0 | 3.0 | 0.00 | 1.14 | 1.14 | 99 | 1016.1 |
| 20260509135146 | 66 | 310 | 2.0 | 2.0 | 0.00 | 1.14 | 1.14 | 99 | 1016.1 |
| 20260509134642 | 66 | 298 | 2.0 | 2.0 | 0.00 | 1.14 | 1.14 | 99 | 1016.2 |
| 20260509134139 | 66 | 323 | 4.0 | 6.0 | 0.00 | 1.14 | 1.14 | 99 | 1016.3 |
| 20260509133636 | 65 | 320 | 3.0 | 5.0 | 0.00 | 1.14 | 1.14 | 99 | 1016.0 |
| 20260509133134 | 65 | 320 | 3.0 | 4.0 | 0.02 | 1.14 | 1.14 | 99 | 1015.9 |
| 20260509132632 | 66 | 311 | 4.0 | 9.0 | 0.00 | 1.13 | 1.13 | 99 | 1016.0 |
| 20260509132130 | 65 | 308 | 3.0 | 4.0 | 0.00 | 1.13 | 1.13 | 99 | 1015.8 |
| 20260509131626 | 65 | 312 | 3.0 | 4.0 | 0.00 | 1.13 | 1.13 | 99 | 1015.9 |
| 20260509131123 | 65 | 309 | 4.0 | 4.0 | 0.00 | 1.13 | 1.13 | 99 | 1015.6 |
| 20260509130619 | 65 | 312 | 2.0 | 3.0 | 0.00 | 1.13 | 1.13 | 99 | 1015.5 |
| 20260509130115 | 65 | 253 | 2.0 | 2.0 | 0.00 | 1.13 | 1.13 | 99 | 1015.5 |
| 20260509125612 | 65 | 314 | 1.0 | 2.0 | 0.00 | 1.13 | 1.13 | 99 | 1015.1 |
| 20260509125108 | 65 | 314 | 3.0 | 5.0 | 0.00 | 1.13 | 1.13 | 99 | 1015.2 |
| 20260509124605 | 65 | 329 | 7.0 | 7.0 | 0.00 | 1.13 | 1.13 | 99 | 1014.9 |
| 20260509124102 | 65 | 297 | 5.0 | 5.0 | 0.00 | 1.13 | 1.13 | 99 | 1014.7 |
| 20260509123600 | 64 | 298 | 2.0 | 5.0 | 0.00 | 1.13 | 1.13 | 99 | 1014.8 |
| 20260509123056 | 64 | 302 | 3.0 | 5.0 | 0.00 | 1.13 | 1.13 | 99 | 1014.6 |
| 20260509122552 | 64 | 310 | 1.0 | 4.0 | 0.00 | 1.13 | 1.13 | 99 | 1014.7 |
| 20260509122050 | 64 | 268 | 3.0 | 3.0 | 0.00 | 1.13 | 1.13 | 99 | 1014.9 |
| 20260509121546 | 64 | 302 | 2.0 | 3.0 | 0.00 | 1.13 | 1.13 | 99 | 1014.9 |
| 20260509121048 | 64 | 305 | 3.0 | 3.0 | 0.00 | 1.13 | 1.13 | 99 | 1014.8 |
| 20260509120542 | 64 | 317 | 3.0 | 3.0 | 0.00 | 1.13 | 1.13 | 99 | 1014.8 |
| 20260509120040 | 64 | 291 | 2.0 | 2.0 | 0.00 | 1.13 | 1.13 | 99 | 1015.1 |
| 20260509115536 | 64 | 271 | 2.0 | 2.0 | 0.00 | 1.13 | 1.13 | 99 | 1014.8 |
| 20260509115034 | 64 | 278 | 2.0 | 3.0 | 0.00 | 1.13 | 1.13 | 99 | 1015.0 |
| 20260509114532 | 64 | 312 | 3.0 | 3.0 | 0.00 | 1.13 | 1.13 | 99 | 1015.1 |
| 20260509114031 | 64 | 262 | 2.0 | 3.0 | 0.00 | 1.13 | 1.13 | 99 | 1014.9 |
| 20260509113529 | 64 | 309 | 3.0 | 3.0 | 0.00 | 1.13 | 1.13 | 99 | 1014.9 |
| 20260509113027 | 64 | 305 | 3.0 | 3.0 | 0.00 | 1.13 | 1.13 | 99 | 1015.1 |
| 20260509112523 | 64 | 315 | 3.0 | 4.0 | 0.02 | 1.13 | 1.13 | 99 | 1015.0 |
| 20260509112019 | 64 | 290 | 1.0 | 2.0 | 0.05 | 1.13 | 1.13 | 99 | 1015.4 |
| 20260509111517 | 64 | 237 | 3.0 | 4.0 | 0.02 | 1.13 | 1.13 | 99 | 1015.1 |
| 20260509111014 | 64 | 268 | 2.0 | 3.0 | 0.02 | 1.13 | 1.13 | 99 | 1014.7 |
| 20260509110510 | 64 | 274 | 2.0 | 2.0 | 0.02 | 1.13 | 1.13 | 99 | 1014.5 |
| 20260509110008 | 64 | 256 | 2.0 | 3.0 | 0.02 | 1.12 | 1.12 | 99 | 1014.5 |
| 20260509105506 | 64 | 243 | 3.0 | 3.0 | 0.05 | 1.12 | 1.12 | 99 | 1014.2 |
| 20260509105003 | 64 | 259 | 2.0 | 3.0 | 0.02 | 1.12 | 1.12 | 99 | 1014.2 |
| 20260509104500 | 64 | 267 | 4.0 | 4.0 | 0.02 | 1.11 | 1.11 | 99 | 1014.3 |
| 20260509103957 | 64 | 326 | 3.0 | 4.0 | 0.02 | 1.11 | 1.11 | 99 | 1014.1 |
| 20260509103455 | 64 | 335 | 2.0 | 3.0 | 0.07 | 1.11 | 1.11 | 99 | 1014.5 |
| 20260509102953 | 64 | 234 | 2.0 | 2.0 | 0.17 | 1.11 | 1.11 | 99 | 1015.1 |
| 20260509102450 | 64 | 322 | 4.0 | 5.0 | 0.26 | 1.10 | 1.10 | 99 | 1015.2 |
| 20260509101946 | 65 | 317 | 7.0 | 11.0 | 0.52 | 1.07 | 1.07 | 99 | 1015.2 |
| 20260509101442 | 65 | 283 | 3.0 | 7.0 | 0.90 | 1.05 | 1.05 | 99 | 1015.6 |
| 20260509100940 | 65 | 343 | 6.0 | 9.0 | 0.99 | 0.98 | 0.98 | 99 | 1015.7 |
| 20260509100437 | 65 | 297 | 6.0 | 15.0 | 1.44 | 0.89 | 0.89 | 99 | 1016.0 |
| 20260509095933 | 65 | 346 | 10.0 | 11.0 | 2.48 | 0.81 | 0.81 | 99 | 1015.7 |
| 20260509095430 | 65 | 289 | 4.0 | 16.0 | 2.65 | 0.65 | 0.65 | 99 | 1016.4 |
| 20260509094927 | 66 | 265 | 6.0 | 12.0 | 1.13 | 0.37 | 0.37 | 99 | 1016.2 |
| 20260509094424 | 65 | 289 | 2.0 | 3.0 | 0.19 | 0.19 | 0.19 | 99 | 1013.8 |
| 20260509093922 | 65 | 283 | 2.0 | 4.0 | 0.12 | 0.18 | 0.18 | 99 | 1013.6 |
| 20260509093419 | 64 | 135 | 0.0 | 2.0 | 0.02 | 0.16 | 0.16 | 99 | 1013.4 |
| 20260509092917 | 64 | 293 | 1.0 | 3.0 | 0.19 | 0.16 | 0.16 | 99 | 1013.3 |
| 20260509092414 | 64 | 240 | 1.0 | 1.0 | 0.94 | 0.16 | 0.16 | 99 | 1013.2 |
| 20260509091913 | 64 | 57 | 2.0 | 2.0 | 0.71 | 0.12 | 0.12 | 99 | 1013.2 |
| 20260509091409 | 64 | 251 | 2.0 | 2.0 | 0.00 | 0.00 | 0.00 | 99 | 1013.6 |
| 20260509090907 | 64 | 310 | 2.0 | 2.0 | 0.00 | 0.00 | 0.00 | 99 | 1013.2 |
| 20260509090404 | 64 | 331 | 2.0 | 2.0 | 0.00 | 0.00 | 0.00 | 99 | 1013.2 |
| 20260509085901 | 64 | 289 | 1.0 | 2.0 | 0.00 | 0.00 | 0.00 | 99 | 1013.5 |
| 20260509085358 | 64 | 51 | 0.0 | 0.0 | 0.00 | 0.00 | 0.00 | 99 | 1013.1 |
| 20260509084854 | 64 | 213 | 1.0 | 1.0 | 0.00 | 0.00 | 0.00 | 99 | 1013.8 |
| 20260509084351 | 64 | 295 | 2.0 | 2.0 | 0.00 | 0.00 | 0.00 | 99 | 1013.7 |
| 20260509083849 | 64 | 319 | 2.0 | 4.0 | 0.00 | 0.00 | 0.00 | 99 | 1013.9 |
| 20260509083346 | 63 | 317 | 2.0 | 2.0 | 0.00 | 0.00 | 0.00 | 99 | 1013.8 |
| 20260509082842 | 63 | 294 | 2.0 | 2.0 | 0.00 | 0.00 | 0.00 | 99 | 1013.8 |
| 20260509082339 | 63 | 311 | 2.0 | 3.0 | 0.00 | 0.00 | 0.00 | 99 | 1013.7 |
| 20260509081837 | 63 | 301 | 2.0 | 4.0 | 0.00 | 0.00 | 0.00 | 99 | 1013.7 |
| 20260509081333 | 63 | 244 | 0.0 | 2.0 | 0.00 | 0.00 | 0.00 | 99 | 1013.6 |
| 20260509080832 | 63 | 274 | 2.0 | 2.0 | 0.00 | 0.00 | 0.00 | 99 | 1013.5 |
| 20260509080329 | 63 | 277 | 2.0 | 2.0 | 0.00 | 0.00 | 0.00 | 99 | 1013.5 |
| 20260509075827 | 63 | 301 | 2.0 | 2.0 | 0.00 | 0.00 | 0.00 | 99 | 1013.6 |
| 20260509075324 | 63 | 263 | 0.0 | 2.0 | 0.00 | 0.00 | 0.00 | 99 | 1013.7 |
| 20260509074821 | 64 | 299 | 0.0 | 0.0 | 0.00 | 0.00 | 0.00 | 99 | 1013.8 |
| 20260509074319 | 64 | 218 | 0.0 | 1.0 | 0.00 | 0.00 | 0.00 | 99 | 1013.9 |
| 20260509073815 | 64 | 308 | 0.0 | 1.0 | 0.00 | 0.00 | 0.00 | 99 | 1014.1 |
| 20260509073311 | 64 | 329 | 2.0 | 2.0 | 0.00 | 0.00 | 0.00 | 99 | 1014.1 |
| 20260509072808 | 64 | 305 | 1.0 | 1.0 | 0.00 | 0.00 | 0.00 | 99 | 1014.4 |
| 20260509072306 | 64 | 279 | 1.0 | 1.0 | 0.00 | 0.00 | 0.00 | 99 | 1014.3 |
| 20260509071801 | 64 | 228 | 0.0 | 0.0 | 0.00 | 0.00 | 0.00 | 99 | 1014.5 |
| 20260509071259 | 64 | 310 | 0.0 | 2.0 | 0.00 | 0.00 | 0.00 | 99 | 1014.7 |
| 20260509070755 | 64 | 291 | 2.0 | 3.0 | 0.00 | 0.00 | 0.00 | 99 | 1014.4 |
| 20260509070252 | 64 | 79 | 0.0 | 0.0 | 0.00 | 0.00 | 0.00 | 99 | 1014.6 |